"Time","Temp","Dewpoint","Humidity","Pressure","Direction","Speed","Gust","Precip","PrecipRate"
"00:04:57","32.1","20.1","60.8","30.08","12","0.2","2.3","0.00","0.00"
"00:09:59","32","20","60.8","30.08","12","0","1.2","0.00","0.00"
"00:14:58","31.8","19.9","61","30.08","12","0","0","0.00","0.00"
"00:19:57","31.6","20","61.9","30.08","13","0","0","0.00","0.00"
"00:24:59","31.2","20.2","63.3","30.08","12","0","1.2","0.00","0.00"
"00:29:56","30.9","20.5","65.1","30.08","12","0.2","2.3","0.00","0.00"
"00:34:57","30.4","20.7","66.9","30.08","12","0","2.3","0.00","0.00"
"00:39:56","30","20.4","67","30.08","12","0","0","0.00","0.00"
"00:44:59","29.6","20.1","67.3","30.08","12","0","0","0.00","0.00"
"00:49:58","29.2","20.4","69.6","30.08","12","0.4","2.3","0.00","0.00"
"00:54:59","28.8","20.2","70","30.08","12","0","0","0.00","0.00"
"00:59:56","28.5","20.3","71","30.09","12","0.2","2","0.00","0.00"
"01:04:59","28.2","20.3","72","30.09","12","0","1.2","0.00","0.00"
"01:09:57","27.9","20.2","72.5","30.09","12","0","0","0.00","0.00"
"01:14:58","27.7","20.3","73.3","30.09","12","0","0","0.00","0.00"
"01:19:57","27.4","20.4","74.5","30.08","12","0.1","2","0.00","0.00"
"01:24:56","27.3","20","73.7","30.08","1","0.6","3.5","0.00","0.00"
"01:29:56","27.4","20","73.3","30.08","337","1.9","4","0.00","0.00"
"01:34:59","28","19.9","71.4","30.08","322","2.3","7","0.00","0.00"
"01:39:57","28.7","20.1","70","30.08","326","1.3","3.5","0.00","0.00"
"01:44:56","29.1","19.8","68","30.08","326","1.6","3.5","0.00","0.00"
"01:49:59","29.5","20.1","67.7","30.08","322","1.3","4","0.00","0.00"
"01:54:58","29.8","19.9","66.4","30.08","293","2.7","9","0.00","0.00"
"01:59:58","30.6","19.8","64.1","30.08","296","2.5","5.8","0.00","0.00"
"02:04:57","31.1","20.2","63.6","30.08","252","0.9","3.5","0.00","0.00"
"02:09:58","31.1","20.1","63.3","30.08","266","1.2","3.5","0.00","0.00"
"02:14:59","31","20.1","63.8","30.08","275","0.5","2.3","0.00","0.00"
"02:19:58","30.6","20.1","64.8","30.08","275","0.4","2","0.00","0.00"
"02:24:59","30.1","20.3","66.4","30.08","275","1","3","0.00","0.00"
"02:29:59","29.6","20","67","30.09","286","0.6","3.5","0.00","0.00"
"02:34:58","29.7","19.7","66.2","30.09","312","2.5","10.4","0.00","0.00"
"02:39:56","30.1","19.8","65.4","30.09","284","1","4","0.00","0.00"
"02:44:57","30.4","19.8","64.3","30.09","329","1.3","4","0.00","0.00"
"02:49:57","30.6","19.9","64","30.09","338","1.1","3.5","0.00","0.00"
"02:54:56","30.6","19.9","64.2","30.09","338","0.6","2.3","0.00","0.00"
"02:59:56","30.3","20.1","65.6","30.09","338","0.9","2.3","0.00","0.00"
"03:04:56","30","20","66.2","30.09","298","1.7","4","0.00","0.00"
"03:09:56","29.9","19.9","66","30.09","298","1.9","3.5","0.00","0.00"
"03:14:56","30.1","19.9","65.4","30.09","298","1.2","3.5","0.00","0.00"
"03:19:57","30.1","20.1","66","30.09","298","0.1","1.2","0.00","0.00"
"03:24:59","29.9","19.9","65.8","30.09","298","0","0","0.00","0.00"
"03:29:58","29.8","19.7","65.7","30.09","321","0.6","4","0.00","0.00"
"03:34:58","29.7","19.6","65.5","30.09","323","0.7","3.5","0.00","0.00"
"03:39:59","29.6","19.6","66","30.09","323","0.1","2","0.00","0.00"
"03:44:58","29.4","19.4","66","30.09","323","0","0","0.00","0.00"
"03:49:56","29.2","19.2","66","30.09","323","0.2","1.2","0.00","0.00"
"03:54:57","29","19.1","66","30.09","317","0.4","3","0.00","0.00"
"03:59:56","28.9","19.6","67.6","30.09","314","0.9","4","0.00","0.00"
"04:04:57","28.8","19.6","68","30.09","312","0.2","1.2","0.00","0.00"
"04:09:58","28.7","19.5","68","30.09","312","0","1.2","0.00","0.00"
"04:14:57","28.6","19.4","68.1","30.09","312","0","0","0.00","0.00"
"04:19:58","28.3","19.5","69.2","30.09","312","0.1","1.2","0.00","0.00"
"04:24:57","28.1","19.4","69.5","30.09","312","0","0","0.00","0.00"
"04:29:59","27.8","18.9","69","30.10","312","0","0","0.00","0.00"
"04:34:59","27.6","19","69.5","30.10","312","0","0","0.00","0.00"
"04:39:56","27.5","19","70.2","30.10","312","0","0","0.00","0.00"
"04:44:58","27.3","19.1","71","30.11","312","0","0","0.00","0.00"
"04:49:56","27.3","18.8","70","30.11","312","0","0","0.00","0.00"
"04:54:59","27.4","19","70.4","30.11","312","0.1","3","0.00","0.00"
"04:59:56","27.4","19.2","71","30.11","322","1","5","0.00","0.00"
"05:04:56","27.6","19.4","71","30.11","325","0.4","2.3","0.00","0.00"
"05:09:57","27.4","19.6","71.8","30.11","325","0.2","2.3","0.00","0.00"
"05:14:57","27.3","19.5","72","30.12","325","0","0","0.00","0.00"
"05:19:56","27.1","19.3","72","30.12","317","0.4","2.3","0.00","0.00"
"05:24:57","27.1","19.3","72","30.12","271","0.9","4","0.00","0.00"
"05:29:59","27.3","19.5","71.9","30.12","264","0.4","2.3","0.00","0.00"
"05:34:58","27.6","19.4","71","30.12","264","0.9","2.3","0.00","0.00"
"05:39:58","27.8","19.6","71","30.12","264","0.6","2.3","0.00","0.00"
"05:44:59","28","19.8","71","30.12","264","0.2","1.2","0.00","0.00"
"05:49:57","27.9","19.7","71","30.12","264","0","1.2","0.00","0.00"
"05:54:56","27.7","19.5","71","30.12","264","0","0","0.00","0.00"
"05:59:56","27.5","19.5","71.7","30.13","264","0","0","0.00","0.00"
"06:04:56","27.3","19.5","72","30.13","264","0","0","0.00","0.00"
"06:09:59","27.1","19.4","72.2","30.13","264","0","0","0.00","0.00"
"06:14:58","26.9","19.3","72.6","30.14","264","0","0","0.00","0.00"
"06:19:57","26.9","19.4","73","30.14","264","0.1","2.3","0.00","0.00"
"06:24:58","26.9","19.2","72.3","30.14","265","0.4","4","0.00","0.00"
"06:29:56","27","19.2","72","30.14","266","0.4","2.3","0.00","0.00"
"06:34:56","27.1","19.3","72","30.14","266","0.3","2.3","0.00","0.00"
"06:39:57","27.2","19.4","72.2","30.14","266","0.3","2.3","0.00","0.00"
"06:44:56","27.4","19.6","72","30.15","266","0.2","2.3","0.00","0.00"
"06:49:57","27.7","19.6","71.3","30.15","266","0","0","0.00","0.00"
"06:54:57","27.9","19.5","70.5","30.15","266","0.1","1.2","0.00","0.00"
"06:59:56","27.9","19.5","70.1","30.15","266","0","1.2","0.00","0.00"
"07:04:58","27.6","19.4","71","30.15","266","0","0","0.00","0.00"
"07:09:59","27.2","19.3","71.8","30.15","266","0","0","0.00","0.00"
"07:14:58","26.8","19.1","72.4","30.16","266","0","0","0.00","0.00"
"07:19:56","26.5","19","73","30.16","266","0","0","0.00","0.00"
"07:24:58","26.3","18.9","73.2","30.16","266","0","0","0.00","0.00"
"07:29:55","26.1","18.9","74","30.16","266","0","0","0.00","0.00"
"07:34:57","26","18.9","74.3","30.16","266","0","0","0.00","0.00"
"07:39:58","25.8","19.3","75.8","30.16","266","0","0","0.00","0.00"
"07:44:56","25.8","19.3","76","30.16","266","0","0","0.00","0.00"
"07:49:55","26","19.5","76","30.16","266","0","0","0.00","0.00"
"07:54:57","26.3","19.8","76","30.16","266","0","0","0.00","0.00"
"07:59:57","26.7","20.1","76","30.17","266","0","0","0.00","0.00"
"08:04:59","27.3","20.6","75.5","30.17","266","0.2","2.3","0.00","0.00"
"08:09:57","28.3","21.1","74.1","30.17","266","0.7","2.3","0.00","0.00"
"08:14:57","29.5","21.6","72.1","30.17","266","0.1","1.2","0.00","0.00"
"08:19:58","30.7","22.2","70.5","30.17","266","0","1","0.00","0.00"
"08:24:59","31.8","23","69.8","30.17","266","0.2","3","0.00","0.00"
"08:29:59","32.8","22.5","65.5","30.17","286","2","6","0.00","0.00"
"08:34:59","33.3","22.5","64.2","30.17","269","1.3","3.5","0.00","0.00"
"08:39:57","33.9","22.9","63.9","30.17","292","1.7","4","0.00","0.00"
"08:44:58","34.3","22.7","62.2","30.17","306","2.7","6","0.00","0.00"
"08:49:57","34.5","22.5","61.2","30.17","308","2","5.8","0.00","0.00"
"08:54:57","34.9","23.1","61.8","30.17","321","1.6","4","0.00","0.00"
"08:59:56","35.4","23.1","60.6","30.18","279","1.6","4","0.00","0.00"
"09:04:57","35.7","23.1","59.7","30.18","313","2.7","7","0.00","0.00"
"09:09:57","35.9","23.1","59.3","30.18","312","2.7","7","0.00","0.00"
"09:14:59","36.1","23.3","59.5","30.18","305","3","6","0.00","0.00"
"09:19:58","36.3","23.5","59.5","30.18","322","3.1","8.1","0.00","0.00"
"09:24:58","36.6","23.6","59.1","30.18","302","4.7","9.2","0.00","0.00"
"09:29:56","36.7","24.3","60.4","30.18","261","3.2","9.2","0.00","0.00"
"09:34:59","37","24.2","59.5","30.18","316","3.2","11","0.00","0.00"
"09:39:58","37.2","23.9","58.1","30.18","328","4.4","11.5","0.00","0.00"
"09:44:59","37.5","24.6","59.4","30.18","277","4.1","13","0.00","0.00"
"09:49:56","37.8","24.5","58.4","30.18","280","3.3","7","0.00","0.00"
"09:54:59","38","24.6","58.2","30.18","297","3.4","9","0.00","0.00"
"09:59:57","38.1","24.1","56.6","30.18","317","4.5","11","0.00","0.00"
"10:04:57","38.2","24.2","56.7","30.18","309","6.8","17.3","0.00","0.00"
"10:09:57","38.1","23.6","55.6","30.18","325","6.8","17.3","0.00","0.00"
"10:14:56","38.2","23.8","55.8","30.18","323","5.4","14","0.00","0.00"
"10:19:56","38.4","23.9","55.7","30.18","328","5.2","15","0.00","0.00"
"10:24:57","38.9","25","57.1","30.18","272","3.6","10","0.00","0.00"
"10:29:56","39.6","25.7","57.1","30.18","302","4.4","15","0.00","0.00"
"10:34:58","39.9","24.7","54.4","30.18","305","5.5","15","0.00","0.00"
"10:39:58","39.8","24.3","53.7","30.18","303","6.1","13","0.00","0.00"
"10:44:56","39.8","24","53.1","30.18","289","6.5","13","0.00","0.00"
"10:49:59","39.8","23.7","52.3","30.18","337","5.8","13","0.00","0.00"
"10:54:56","39.9","23.5","51.6","30.18","316","6.6","14","0.00","0.00"
"10:59:58","39.9","23.9","52.4","30.18","298","5","16","0.00","0.00"
"11:04:57","40.2","23.2","50.4","30.18","317","7.8","23","0.00","0.00"
"11:09:58","40","23.4","51.2","30.18","296","4.9","16.1","0.00","0.00"
"11:14:56","40.1","24.1","52.4","30.18","312","5.8","14","0.00","0.00"
"11:19:57","40.3","23.4","50.7","30.18","288","7.5","16.1","0.00","0.00"
"11:24:56","40.1","23.3","50.7","30.18","283","5.6","13","0.00","0.00"
"11:29:58","40.1","23.8","52","30.18","305","5.2","13","0.00","0.00"
"11:34:56","39.9","22.5","49.3","30.17","326","7.2","13","0.00","0.00"
"11:39:56","39.5","22.6","50.4","30.17","329","5.9","14","0.00","0.00"
"11:44:59","40","23.6","51.6","30.17","287","4.3","14","0.00","0.00"
"11:49:57","40","22.7","49.7","30.17","281","4.5","12","0.00","0.00"
"11:54:56","40.1","22.7","49.6","30.17","281","5","19","0.00","0.00"
"11:59:59","40.1","22","48","30.17","346","5.9","12.7","0.00","0.00"
"12:04:59","40.3","22.6","49.1","30.17","302","3.4","11.5","0.00","0.00"
"12:09:59","40.7","22.6","48.3","30.17","330","5.1","16.1","0.00","0.00"
"12:14:56","40.9","22.9","48.3","30.17","343","4.2","11","0.00","0.00"
"12:19:56","41.5","22.7","47","30.17","335","7.2","16.1","0.00","0.00"
"12:24:59","41.6","22.9","47.1","30.17","327","7.2","17","0.00","0.00"
"12:29:56","41.5","22.3","46","30.17","262","5.4","12.7","0.00","0.00"
"12:34:57","41.2","22.3","46.5","30.16","313","6.4","15","0.00","0.00"
"12:39:57","41.1","22.1","46.3","30.16","300","5.4","16","0.00","0.00"
"12:44:58","41.7","23","47.1","30.16","315","6.2","16.1","0.00","0.00"
"12:49:59","42.2","23.2","46.5","30.16","300","3.9","10.4","0.00","0.00"
"12:54:58","42.5","22.8","45.3","30.16","308","4.6","11.5","0.00","0.00"
"12:59:59","42.9","22.8","44.7","30.16","324","6.4","16","0.00","0.00"
"13:04:56","42.9","22.6","44.4","30.15","331","4.9","15","0.00","0.00"
"13:09:56","43.3","22.9","44.3","30.15","328","6.5","16.1","0.00","0.00"
"13:14:59","43.5","23","44","30.15","303","4.1","11","0.00","0.00"
"13:19:57","43.7","22.9","43.4","30.15","286","5.9","14","0.00","0.00"
"13:24:59","43.4","21.9","42.2","30.15","294","4","11.5","0.00","0.00"
"13:29:59","42.9","21.2","41.8","30.15","318","6.8","16","0.00","0.00"
"13:34:59","43.1","21.9","42.5","30.15","286","5.2","15","0.00","0.00"
"13:39:59","43.2","21.3","41.6","30.15","296","6","17","0.00","0.00"
"13:44:58","43","21.3","41.6","30.15","328","5","16.1","0.00","0.00"
"13:49:57","43.4","21.6","41.7","30.15","319","5.7","13","0.00","0.00"
"13:54:57","43.6","22.1","42.2","30.15","280","3","12.7","0.00","0.00"
"13:59:56","43.8","21.8","41.4","30.15","321","4.5","9.2","0.00","0.00"
"14:04:59","43.6","21.2","40.8","30.15","341","4.2","12","0.00","0.00"
"14:09:59","43.6","21.2","40.6","30.15","343","5.3","13","0.00","0.00"
"14:14:59","43.6","20","38.6","30.16","321","7.5","13","0.00","0.00"
"14:19:56","43.1","20","39.4","30.16","328","6.2","14","0.00","0.00"
"14:24:56","43.2","20.8","40.6","30.16","321","4.8","14","0.00","0.00"
"14:29:59","43.2","21.1","40.9","30.16","315","5.2","15","0.00","0.00"
"14:34:57","43.3","20.3","39.4","30.16","329","5.4","15","0.00","0.00"
"14:39:58","43.5","20.7","40","30.16","311","4.4","12","0.00","0.00"
"14:44:57","43.5","20.2","39.1","30.17","322","7.7","19.6","0.00","0.00"
"14:49:57","43","19.6","38.7","30.17","325","7.6","14","0.00","0.00"
"14:54:57","42.8","20.5","40.7","30.17","320","3.7","13.8","0.00","0.00"
"14:59:56","43.2","20.9","40.7","30.17","324","3.2","10","0.00","0.00"
"15:04:57","43.5","20.4","39.5","30.17","338","5.6","16.1","0.00","0.00"
"15:09:58","43.4","20.2","39.2","30.17","318","5","11.5","0.00","0.00"
"15:14:57","43.6","20.5","39.6","30.18","309","6.1","13","0.00","0.00"
"15:19:56","43.2","19.6","38.6","30.18","324","6.1","13","0.00","0.00"
"15:24:58","43.1","20","39.3","30.18","351","5.3","13","0.00","0.00"
"15:29:58","43.2","19.7","38.8","30.18","0","4.7","12","0.00","0.00"
"15:34:58","43.3","19.6","38.5","30.18","310","3","11.5","0.00","0.00"
"15:39:56","43.3","19.1","37.6","30.18","333","5.7","15","0.00","0.00"
"15:44:57","43","18.9","37.7","30.19","328","3.9","11.5","0.00","0.00"
"15:49:58","42.8","18.4","37.2","30.19","316","5","15","0.00","0.00"
"15:54:59","42.3","18.7","38.3","30.19","318","5.3","11.5","0.00","0.00"
"15:59:58","42.1","18.5","38.3","30.20","345","6","21","0.00","0.00"
"16:04:59","41.9","18.4","38.6","30.20","321","5.9","11.5","0.00","0.00"
"16:09:56","41.6","18.1","38.5","30.20","307","4.2","17.3","0.00","0.00"
"16:14:59","41.3","18.2","39","30.20","318","4.7","14","0.00","0.00"
"16:19:58","41.2","18.4","39.5","30.20","324","3.2","10","0.00","0.00"
"16:24:57","41.1","18.1","39.2","30.20","331","5.3","15","0.00","0.00"
"16:29:58","40.9","18.2","39.6","30.20","318","5.4","11.5","0.00","0.00"
"16:34:58","40.7","17.9","39.4","30.20","326","5.3","14","0.00","0.00"
"16:39:57","40.5","17.8","39.6","30.20","315","4","11","0.00","0.00"
"16:44:56","40.2","18","40.5","30.21","345","4.2","10","0.00","0.00"
"16:49:59","39.8","17.9","40.8","30.21","335","4.6","9.2","0.00","0.00"
"16:54:59","39.5","17.9","41.4","30.21","317","3.7","6.9","0.00","0.00"
"16:59:56","39.2","17.6","41.3","30.22","330","3.7","13","0.00","0.00"
"17:04:58","39.1","17.6","41.3","30.22","338","4.9","11","0.00","0.00"
"17:09:58","38.9","17.7","41.8","30.22","332","3.3","11.5","0.00","0.00"
"17:14:56","38.8","17.5","41.8","30.23","331","3.7","7","0.00","0.00"
"17:19:59","38.6","17.6","42.3","30.23","333","4","11.5","0.00","0.00"
"17:24:57","38.4","17.7","42.8","30.23","329","3.4","10.4","0.00","0.00"
"17:29:57","38.3","17.5","42.7","30.24","340","3.8","10","0.00","0.00"
"17:34:58","38.2","17.5","42.9","30.24","343","2.8","10.4","0.00","0.00"
"17:39:57","38","17.7","43.3","30.24","337","3.3","9.2","0.00","0.00"
"17:44:57","37.9","17.9","44","30.25","327","3.3","6","0.00","0.00"
"17:49:55","37.6","18.1","44.8","30.25","316","3","7","0.00","0.00"
"17:54:59","37.4","17.8","44.5","30.25","317","3.4","6","0.00","0.00"
"17:59:58","37.3","17.9","45","30.25","326","3.2","6","0.00","0.00"
"18:04:58","37.2","18","45.4","30.25","334","3.2","6","0.00","0.00"
"18:09:58","37","18","45.7","30.25","341","2.2","5.8","0.00","0.00"
"18:14:59","36.8","17.9","46","30.26","323","1.3","3.5","0.00","0.00"
"18:19:56","36.5","17.9","46.5","30.26","323","0.4","2.3","0.00","0.00"
"18:24:59","36.2","18.4","48","30.26","323","0.2","2.3","0.00","0.00"
"18:29:58","35.8","18.2","48.3","30.26","323","0.4","2.3","0.00","0.00"
"18:34:57","35.3","18.2","49.4","30.26","323","0.3","2.3","0.00","0.00"
"18:39:57","34.9","18.3","50.4","30.26","323","0","0","0.00","0.00"
"18:44:59","34.5","18.2","51","30.27","323","0","0","0.00","0.00"
"18:49:59","34.1","18.5","52.5","30.27","323","0","0","0.00","0.00"
"18:54:57","33.7","18.6","53.7","30.27","323","0","0","0.00","0.00"
"18:59:58","33.3","18.8","54.9","30.27","323","0","0","0.00","0.00"
"19:04:57","32.9","19","56.2","30.27","323","0","0","0.00","0.00"
"19:09:58","32.6","18.9","56.9","30.27","323","0","0","0.00","0.00"
"19:14:57","32.3","19.5","58.7","30.28","323","0","0","0.00","0.00"
"19:19:56","31.9","19.5","59.7","30.28","323","0","0","0.00","0.00"
"19:24:57","31.5","19.4","60.3","30.28","323","0","0","0.00","0.00"
"19:29:56","31.2","19.3","61","30.28","323","0","0","0.00","0.00"
"19:34:56","30.9","19.2","61.4","30.28","323","0","1","0.00","0.00"
"19:39:58","30.7","19.2","62","30.28","323","0","0","0.00","0.00"
"19:44:59","30.4","18.9","61.9","30.28","323","0","1.2","0.00","0.00"
"19:49:59","30.2","19.2","63.4","30.28","323","0","1.2","0.00","0.00"
"19:54:59","29.9","19.6","64.9","30.28","323","0","0","0.00","0.00"
"19:59:56","29.7","19.7","65.8","30.29","323","0","0","0.00","0.00"
"20:04:57","29.5","19.5","66","30.29","323","0","0","0.00","0.00"
"20:09:57","29.3","19.3","66","30.29","323","0","0","0.00","0.00"
"20:14:56","29.2","19.2","66","30.29","323","0","0","0.00","0.00"
"20:19:59","29.1","19.1","65.8","30.29","323","0","1","0.00","0.00"
"20:24:56","29.2","19.4","66.4","30.29","323","0","0","0.00","0.00"
"20:29:58","29.3","19.6","66.8","30.29","323","0","0","0.00","0.00"
"20:34:57","29.3","19.6","66.6","30.29","323","0","0","0.00","0.00"
"20:39:56","29.2","19.2","66","30.29","323","0","0","0.00","0.00"
"20:44:58","29.2","19.2","66","30.29","323","0","0","0.00","0.00"
"20:49:56","29.1","19.4","66.8","30.29","323","0","0","0.00","0.00"
"20:54:58","29","19.5","67.2","30.29","323","0","1.2","0.00","0.00"
"20:59:57","29","19.7","67.8","30.29","323","0","0","0.00","0.00"
"21:04:58","28.8","19.6","68","30.29","323","0","0","0.00","0.00"
"21:09:59","28.8","19.6","68.3","30.29","323","0","0","0.00","0.00"
"21:14:56","28.7","19.5","68","30.29","323","0","0","0.00","0.00"
"21:19:57","28.6","19.5","68.3","30.29","322","0.5","2.3","0.00","0.00"
"21:24:57","28.7","19.3","67.7","30.29","322","0.9","2.3","0.00","0.00"
"21:29:56","28.8","18.8","65.9","30.29","308","1.1","3.5","0.00","0.00"
"21:34:59","29.4","18.4","63.4","30.29","299","1.9","5","0.00","0.00"
"21:39:56","30.2","18.6","61.7","30.29","316","2.1","4","0.00","0.00"
"21:44:57","30.8","18.3","59.5","30.30","302","1.4","3.5","0.00","0.00"
"21:49:57","31","18.5","59.5","30.30","301","0.4","2.3","0.00","0.00"
"21:54:56","31","18.5","59.6","30.30","301","0.4","2.3","0.00","0.00"
"21:59:59","30.8","18.3","59.4","30.30","306","1.2","3.5","0.00","0.00"
"22:04:59","30.8","18.1","58.8","30.30","307","1.8","3.5","0.00","0.00"
"22:09:56","31.2","18.3","58.5","30.30","316","2.1","4","0.00","0.00"
"22:14:57","31.5","18.5","58.4","30.30","286","1.5","3.5","0.00","0.00"
"22:19:58","31.5","18.4","58","30.29","294","1.9","4","0.00","0.00"
"22:24:57","31.6","18.5","58","30.29","275","1.4","3.5","0.00","0.00"
"22:29:56","31.6","18.5","58","30.30","282","0.9","3.5","0.00","0.00"
"22:34:56","31.5","18.4","58","30.30","298","1.8","6","0.00","0.00"
"22:39:59","31.7","18.6","58","30.30","274","1.8","5.8","0.00","0.00"
"22:44:56","31.9","18.8","58","30.31","273","1.6","3.5","0.00","0.00"
"22:49:58","32","18.9","58","30.31","290","1.4","4","0.00","0.00"
"22:54:59","32","18.9","58","30.31","260","1.8","7","0.00","0.00"
"22:59:58","32.1","18.8","57.4","30.31","287","1.6","4","0.00","0.00"
"23:04:59","32.2","18.8","57.2","30.31","294","1.2","5","0.00","0.00"
"23:09:56","32.3","18.8","57","30.31","288","0.6","2.3","0.00","0.00"
"23:14:59","32.1","18.7","57.2","30.31","297","1","3.5","0.00","0.00"
"23:19:58","31.9","18.9","58.2","30.31","301","0.6","2","0.00","0.00"
"23:24:59","31.5","18.8","58.8","30.31","276","1","2.3","0.00","0.00"
"23:29:58","31.4","18.9","59.5","30.32","192","0.8","2.3","0.00","0.00"
"23:34:57","31.1","18.8","60","30.32","199","0.7","2.3","0.00","0.00"
"23:39:58","30.8","18.5","60","30.32","200","0.4","2.3","0.00","0.00"
"23:44:59","30.6","18.5","60.5","30.32","200","0.1","1.2","0.00","0.00"
"23:49:56","30.2","19","62.6","30.32","200","0.5","1.2","0.00","0.00"
"23:54:56","29.8","18.8","63.2","30.32","200","0.5","1.2","0.00","0.00"
"23:59:57","29.5","18.8","64","30.32","200","0","1.2","0.00","0.00"
